Yakima, WA
on Saturday, November 3, 2012

Saturday
Previous Day Next Day
Daily Summary
 ActualAverageRecord
Temperature
Mean Temperature °F 42°F  
Max Temperature 57°F 55°F 72°F (1975)
Min Temperature 46°F 30°F 7°F (2002)
Degree Days
Heating Degree Days 13 23  
Month to date heating degree days 46 68  
Since 1 July heating degree days 583 772  
Cooling Degree Days 0 0  
Month to date cooling degree days 0 0  
Year to date cooling degree days 667 472  
Growing Degree Days2 (Base °F )  
Moisture
Dew Point 46°F   
Average Humidity 85    
Maximum Humidity 93    
Minimum Humidity 77    
Precipitation
Precipitation 0.01 in 0.03 in 0.57 in (1958)
Month to date precipitation 0.06 0.08  
Year to date precipitation 6.59 5.75  
Snow
Snow 0.00 in 0.00 in 2.50 in (1973)
Month to date snowfall 0.0 0.0  
Year to date snowfall 21.5 8.7  
Since 1 July snowfall 0.0 0.1  
Snow Depth 0.00 in   
Wind
Wind Speed 2 mph   
Max Wind Speed 8 mph   
Max Gust Speed 40 mph   
Visibility 5 miles   
Events Rain   

Key: T is trace of precipitation, MM is missing value
Source: NWS Daily Summary
Time(PDT)TemperatureDew PointHumidity Pressure Visibility Wind DirectionWind SpeedGust SpeedPrecipitationEvents Conditions
12:53 AM 46.9°F 44.1°F 90% 30.04 in 5.0 miles Calm Calm - N/A   Mostly Cloudy
1:53 AM 46.9°F 44.1°F 90% 30.04 in 6.0 miles Calm Calm - N/A   Mostly Cloudy
2:14 AM 46.4°F 44.6°F 93% 30.02 in 4.0 miles Calm Calm - N/A   Overcast
2:53 AM 46.9°F 44.1°F 90% 30.03 in 6.0 miles NNW 3.5 mph - N/A   Overcast
3:12 AM 48.2°F 44.6°F 87% 30.02 in 6.0 miles Calm Calm - N/A   Overcast
3:21 AM 48.2°F 44.6°F 87% 30.02 in 1.8 miles Calm Calm - N/A   Overcast
3:30 AM 46.4°F 44.6°F 93% 30.03 in 0.8 miles West 4.6 mph - N/A   Overcast
3:36 AM 46.4°F 44.6°F 93% 30.03 in 2.5 miles West 4.6 mph - N/A   Overcast
3:43 AM 46.4°F 44.6°F 93% 30.03 in 7.0 miles West 4.6 mph - N/A   Overcast
3:53 AM 48.0°F 45.0°F 89% 30.04 in 7.0 miles West 3.5 mph - 0.00 in Rain Light Rain
4:01 AM 48.2°F 44.6°F 87% 30.03 in 6.0 miles WSW 3.5 mph - 0.00 in Rain Light Rain
4:53 AM 48.0°F 46.0°F 93% 30.04 in 7.0 miles Calm Calm - 0.00 in   Overcast
5:53 AM 48.0°F 46.0°F 93% 30.05 in 4.0 miles Calm Calm - 0.00 in Rain Light Rain
6:53 AM 46.9°F 45.0°F 93% 30.06 in 3.0 miles Calm Calm - 0.01 in   Mostly Cloudy
7:15 AM 46.4°F 44.6°F 93% 30.05 in 3.0 miles Calm Calm - N/A   Mostly Cloudy
7:34 AM 46.4°F 44.6°F 93% 30.04 in 2.5 miles Calm Calm - N/A   Overcast
7:53 AM 46.9°F 44.1°F 90% 30.06 in 2.5 miles Calm Calm - N/A   Mostly Cloudy
8:00 AM 46.4°F 44.6°F 93% 30.05 in 1.2 miles Calm Calm - N/A   Scattered Clouds
8:16 AM 46.4°F 44.6°F 93% 30.06 in 1.5 miles Calm Calm - N/A   Mostly Cloudy
8:25 AM 46.4°F 44.6°F 93% 30.06 in 2.0 miles Calm Calm - N/A   Mostly Cloudy
8:53 AM 48.9°F 46.0°F 90% 30.08 in 3.0 miles Calm Calm - 0.00 in Rain Light Rain
9:53 AM 48.9°F 46.0°F 90% 30.09 in 6.0 miles Calm Calm - 0.00 in   Mist
10:35 AM 51.8°F 46.4°F 82% 30.08 in 8.0 miles Calm Calm - N/A   Mostly Cloudy
10:53 AM 52.0°F 46.9°F 83% 30.09 in 7.0 miles Calm Calm - N/A   Mostly Cloudy
11:00 AM 51.8°F 48.2°F 88% 30.09 in 6.0 miles Calm Calm - N/A   Mostly Cloudy
11:53 AM 53.1°F 48.0°F 83% 30.10 in 6.0 miles Calm Calm - N/A   Haze
12:53 PM 54.0°F 48.0°F 80% 30.09 in 7.0 miles Calm Calm - N/A   Mostly Cloudy
1:53 PM 55.0°F 48.0°F 77% 30.09 in 6.0 miles Calm Calm - N/A   Haze
2:53 PM 55.9°F 48.0°F 75% 30.08 in 7.0 miles Calm Calm - N/A   Scattered Clouds
3:53 PM 55.9°F 48.9°F 77% 30.09 in 7.0 miles Calm Calm - N/A   Mostly Cloudy
4:53 PM 55.9°F 48.9°F 77% 30.09 in 7.0 miles Calm Calm - N/A   Partly Cloudy
5:53 PM 55.0°F 48.9°F 80% 30.09 in 8.0 miles Calm Calm - N/A   Mostly Cloudy
6:53 PM 50.0°F 46.9°F 89% 30.12 in 5.0 miles West 5.8 mph - N/A   Clear
7:53 PM 48.9°F 46.0°F 90% 30.13 in 4.0 miles WNW 5.8 mph - N/A   Clear
8:53 PM 48.9°F 46.0°F 90% 30.14 in 4.0 miles West 3.5 mph - N/A   Clear
9:53 PM 48.0°F 45.0°F 89% 30.15 in 2.5 miles West 4.6 mph - N/A   Clear
10:05 PM 48.2°F 44.6°F 87% 30.14 in 3.0 miles Calm Calm - N/A   Clear
10:53 PM 48.9°F 46.0°F 90% 30.16 in 4.0 miles West 5.8 mph - N/A   Overcast
11:53 PM 48.9°F 46.0°F 90% 30.18 in 4.0 miles WNW 5.8 mph - N/A   Overcast
Moon Phase
Nov. 03 Nov. 06 Nov. 13 Nov. 20 Nov. 28
Sunrise:07:47 AM (PDT) Moon Rise:09:23 PM (PDT)11/3
Sunset:05:43 PM (PDT) Moon Set:12:01 PM (PDT)11/3

Copyright © 2014 The Weather Underground, Inc.